Location: Colorado Springs
(38.8340°N, 104.8210°W)
Time: 13:37:29
(UTC-06:00)

ISS - Pass Details

Date: 08 October 2017
Orbit: 401 x 408 km, 51.6° (Epoch: 22 October)

Event Time Altitude Azimuth Distance (km) Brightness Sun altitude
Rises 19:22:10 0° 316° (NW) 2,326 0.8 -10.8°
Reaches altitude 10° 19:25:44 10° 357° (N) 1,467 -0.9 -11.5°
Maximum altitude 19:26:35 11° 12° (NNE) 1,423 -1.2 -11.7°
Drops below altitude 10° 19:27:26 10° 27° (NNE) 1,467 -1.3 -11.9°
Enters shadow 19:28:11 - 39° (NE) 1,573 -1.2 -12.0°
